Location: Asheville, NC
(35.6000°N, 82.5500°W)
Time: 06:20:56

ISS - Pass Details

Date: 17 March 2018
Orbit: 403 x 406 km, 51.6° (Epoch: 17 March)

Event Time Altitude Azimuth Distance (km) Brightness Sun altitude
Exits shadow 05:33:25 11° 11° (NNE) 1,386 -0.8 -25.8°
Maximum altitude 05:34:06 12° 24° (NNE) 1,354 -0.7 -25.7°
Drops below altitude 10° 05:35:23 10° 48° (NE) 1,456 -0.2 -25.4°
Sets 05:38:35 0° 82° (E) 2,312 1.3 -24.8°
